Miscellaneous Local Product
Issued by NWS Hastings, NE

Home | Current Version | Previous Version | Graphics & Text | Print | Product List | Glossary On
Versions: 1 2 3 4 5 6 7 8 9 10 11 12 13 14 15 16 17 18 19 20 21 22 23 24 25 26 27 28 29 30 31 32 33 34 35 36 37 38 39 40 41 42 43 44 45 46 47 48 49 50
000
AXUS43 KGID 080402
MISGRI

GID CWA HOURLY WEATHER ROUNDUP
NATIONAL WEATHER SERVICE HASTINGS NE
1000 PM CST WED DEC 07 2016

NOTE: "FAIR" INDICATES FEW OR NO CLOUDS BELOW 12,000 FEET WITH NO
SIGNIFICANT WEATHER AND/OR OBSTRUCTIONS TO VISIBILITY.

...SOUTH CENTRAL NEBRASKA...

CITY           SKY/WX    TMP DP  RH WIND       PRES   REMARKS
GRAND ISLAND   CLEAR     14   4  64 NW14      30.48R WCI  -1
HASTINGS       CLEAR     14   4  64 NW16      30.49R WCI  -2
KEARNEY        CLEAR     12   1  62 NW10      30.48S WCI  -1
ORD            CLEAR     12  -1  56 NW23G33   30.46R WCI  -7
YORK           CLEAR     16   5  62 NW15      30.47R WCI   1
AURORA         CLEAR     15   4  62 NW17      30.47R WCI  -2
LEXINGTON      CLEAR     10   3  75 NW7       30.49R WCI  -2
HOLDREGE       CLEAR      9   2  72 NW8       30.48R WCI  -3
HEBRON         CLEAR     17   7  65 NW9       30.50R WCI   5

...NEBRASKA PANHANDLE...

CITY           SKY/WX    TMP DP  RH WIND       PRES   REMARKS
CHADRON        CLEAR      4  -5  66 NW10G21   30.49R WCI -11
ALLIANCE       CLEAR      1  -6  72 NW14      30.41R WCI -17
SCOTTSBLUFF    CLEAR     -2  -8  76 NW7       30.46R WCI -15
SIDNEY         CLEAR     -1  -7  75 NW13      30.41R WCI -19

...WESTERN AND NORTH CENTRAL NEBRASKA...

CITY           SKY/WX    TMP DP  RH WIND       PRES   REMARKS
VALENTINE      CLEAR      7  -3  64 NW16G23   30.47R WCI -11
AINSWORTH      CLEAR      8   0  67 NW18G28   30.45R WCI -10
ONEILL         CLEAR     11   2  66 NW18G24   30.44R WCI  -7
BROKEN BOW     CLEAR     11   1  64 NW17      30.45R WCI  -6
IMPERIAL       CLEAR      2  -4  76 W8        30.48R WCI -12
NORTH PLATTE   CLEAR      4  -1  80 NW7       30.48R WCI  -8
MCCOOK         CLEAR      5   0  79 W9        30.51R WCI  -9

...EASTERN NEBRASKA...

CITY           SKY/WX    TMP DP  RH WIND       PRES   REMARKS
NORFOLK        CLEAR     12   1  61 NW20G28   30.41R WCI  -6
SO SIOUX CITY  CLEAR     16   5  62 NW18G26   30.39R WCI   0
TEKAMAH        CLEAR     16   5  62 NW23G30   30.43R WCI  -2
COLUMBUS       CLEAR     14   1  57 NW12      30.46R WCI   0
ALBION         PTCLDY    13   2  62 NW16G23   30.44S WCI  -4
OMAHA EPPLEY   CLEAR     17   5  59 NW16      30.44R WCI   2
OFFUTT AFB     CLEAR     18   6  58 NW15      30.44R WCI   3
MILLARD        CLEAR     19   5  56 NW16G23   30.45R WCI   4
LINCOLN        CLEAR     18   5  57 NW16      30.48R WCI   3
NEBRASKA CITY  CLEAR     19   4  53 NW12G17   30.45R WCI   6
BEATRICE       CLEAR     18   8  64 NW10      30.47R WCI   6
FALLS CITY     CLEAR     19   9  65 NW12      30.46R WCI   7

...NORTHERN KANSAS...

CITY           SKY/WX    TMP DP  RH WIND       PRES   REMARKS
GOODLAND       CLEAR      3  -1  83 NW17      30.45R WCI -17
HILL CITY      CLEAR      9   5  84 W7        30.53R WCI  -2
NORTON         CLEAR      9   1  72 NW12      30.50  WCI  -6
PHILLIPSBURG   CLEAR     10   7  85 W8        30.53R WCI  -1
SMITH CENTER   CLEAR      3   0  85 W6        30.53R WCI  -8
BELOIT         CLEAR     16   9  73 NW9       30.53R WCI   4
HAYS           CLEAR     12   9  87 W9        30.53R WCI   0
RUSSELL        CLEAR     16  11  80 NW10      30.51R WCI   4
CONCORDIA      CLEAR     15   8  73 NW8       30.51R WCI   4
SALINA         CLEAR     19  14  81 NW10      30.53R WCI   7
TOPEKA         CLEAR     21  10  62 W8        30.49R WCI  11



USA.gov is the U.S. government's official web portal to all federal, state and local government web resources and services.